Snowfall_Accumulation
0.0 0.0 0.0 0.0 0.0 0.0 0.0 0.0 0.0 0.0 0.0 0.0 0.0 0.0 0.0 0.0 0.0 0.0 0.0 0.0 0.0 0.0 0.0 0.0 0.0 0.0 0.0 0.0 0.0 0.0 0.0 0.0 0.0 0.0 0.0 0.0 0.0 0.0 0.0 0.0 0.0 0.0 0.0 0.0 0.0 0.0 0.0
0.0 0.0 0.0 0.0 0.0 0.0 0.0 0.0 0.0 0.0 0.0 0.0 0.0 0.0 0.0 0.0 0.0 0.0 0.0 0.0 0.0 0.0 0.0 0.0 0.0 0.0 0.0 0.0 0.0 0.0 0.0 0.0 0.0 0.0 0.0 0.0 0.0 0.0 0.0 0.0 0.0 0.0 0.0 0.0 0.0 0.0 0.0
0.0 0.0 0.0 0.0 0.0 0.0 0.0 0.0 0.0 0.0 0.0 0.0 0.0 0.0 0.0 0.0 0.0 0.0 0.0 0.0 0.0 0.0 0.0 0.0 0.0 0.0 0.0 0.0 0.0 0.0 0.0 0.0 0.0 0.0 0.0 0.0 0.0 0.0 0.0 0.0 0.0 0.0 0.0 0.0 0.0 0.0 0.0
0.0 0.0 0.0 0.0 0.0 0.0 0.0 0.0 0.0 0.0 0.0 0.0 0.0 0.0 0.0 0.0 0.0 0.0 0.0 0.0 0.0 0.0 0.0 0.0 0.0 0.0 0.0 0.0 0.0 0.0 0.0 0.0 0.0 0.0 0.0 0.0 0.0 0.0 0.0 0.0 0.0 0.0 0.0 0.0 0.0 0.0 0.0
0.0 0.0 0.0 0.0 0.0 0.0 0.0 0.0 0.0 0.0 0.0 0.0 0.0 0.0 0.0 0.0 0.0 0.0 0.0 0.0 0.0 0.0 0.0 0.0 0.0 0.0 0.0 0.0 0.0 0.0 0.0 0.0 0.0 0.0 0.0 0.0 0.0 0.0 0.0 0.0 0.0 0.0 0.0 0.0 0.0 0.0 0.0
0.0 0.0 0.0 0.0 0.0 0.0 0.0 0.0 0.0 0.0 0.0 0.0 0.0 0.0 0.0 0.0 0.0 0.0 0.0 0.0 0.0 0.0 0.0 0.0 0.0 0.0 0.0 0.0 0.0 0.0 0.0 0.0 0.0 0.0 0.0 0.0 0.0 0.0 0.0 0.0 0.4 0.0 0.0 0.0 0.0 0.0 0.0
0.0 0.0 0.0 0.0 0.0 0.0 0.0 0.0 0.0 0.0 0.0 0.0 0.0 0.0 0.0 0.0 0.0 0.0 0.0 0.0 0.0 0.0 0.0 0.0 0.0 0.0 0.0 0.0 0.0 0.0 0.0 0.0 0.0 0.0 0.0 0.0 0.0 0.0 0.0 0.0 0.0 0.1 0.2 0.0 0.0 0.0 0.0
0.0 0.0 0.0 0.0 0.0 0.0 0.0 0.0 0.0 0.0 0.0 0.0 0.0 0.0 0.0 0.0 0.0 0.0 0.0 0.0 0.0 0.0 0.0 0.0 0.0 0.0 0.0 0.0 0.0 0.0 0.0 0.0 0.0 0.0 0.0 0.0 0.0 0.0 0.0 0.0 0.0 0.0 0.0 0.2 0.0 0.0 0.0
0.0 0.0 0.0 0.0 0.0 0.0 0.0 0.0 0.0 0.0 0.0 0.0 0.0 0.0 0.0 0.0 0.0 0.0 0.0 0.0 0.0 0.0 0.1 0.0 0.0 0.0 0.0 0.0 0.0 0.0 0.0 0.0 0.0 0.0 0.0 0.0 0.0 0.0 0.0 0.0 0.0 0.0 0.0 0.0 0.0 0.0 0.0
0.0 0.0 0.0 0.0 0.0 0.0 0.0 0.0 0.0 0.0 0.0 0.0 0.0 0.0 0.0 0.0 0.0 0.0 0.0 0.0 0.0 0.0 2.6 0.0 0.0 0.0 0.0 0.0 0.0 0.0 0.0 0.0 0.0 0.0 0.0 0.0 0.0 0.0 0.0 0.0 0.0 2.6 0.0 0.0 0.0 0.0 1.1
0.0 0.0 0.0 0.0 0.0 0.0 0.0 0.0 0.0 0.0 0.0 0.0 0.0 0.0 0.0 0.0 0.0 0.0 0.0 0.0 0.0 0.0 82.1 0.0 0.0 0.0 0.0 0.0 0.0 0.0 0.0 0.0 0.0 0.0 0.0 0.1 0.0 0.0 0.1 0.1 0.0 0.0 0.0 0.0 0.0 2.6 4.1
0.0 0.0 0.0 0.0 0.0 0.0 0.0 0.0 0.0 0.0 0.0 0.0 0.0 0.0 0.0 0.0 0.0 0.0 0.0 0.0 0.0 14.0 71.5 0.0 0.0 0.0 0.0 0.0 0.0 0.0 0.0 0.0 0.0 0.0 0.0 0.0 0.0 0.0 0.1 0.0 0.0 0.0 0.0 0.0 0.2 0.8 19.8
0.0 0.0 0.0 0.0 0.0 0.0 0.0 0.0 0.0 0.0 0.0 0.0 0.0 0.0 0.0 0.0 0.0 0.0 0.0 0.0 35.6 69.8 0.0 0.0 0.0 0.0 0.0 0.0 0.0 0.0 0.0 0.0 2.1 6.3 0.8 0.0 0.0 0.0 0.0 0.0 0.0 0.0 0.9 26.1 27.4 28.9 24.7
0.0 0.0 0.0 0.0 0.0 0.0 0.0 0.0 0.0 0.0 0.0 0.0 0.0 0.0 0.0 0.0 0.0 0.0 0.0 3.9 82.7 6.5 0.0 0.0 0.0 0.0 0.4 0.2 0.0 0.0 0.0 1.1 2.6 5.1 6.6 5.8 6.5 1.3 0.5 0.3 1.7 0.5 2.1 18.6 43.2 19.1 7.0
0.0 0.0 0.0 0.0 0.0 0.0 0.0 0.0 0.0 0.0 0.0 0.0 0.0 0.0 0.0 0.0 0.0 0.0 1.9 64.6 23.0 1.5 0.5 0.8 0.0 0.6 1.4 0.5 1.4 0.6 0.1 2.3 5.0 7.8 24.7 27.6 12.0 2.8 2.0 0.7 0.1 1.6 4.7 0.5 12.3 2.3 19.3
0.0 0.0 0.0 0.0 0.0 0.0 0.0 0.0 0.0 0.0 0.0 0.0 0.0 0.0 0.0 0.0 0.0 0.0 18.3 32.6 5.6 0.8 1.3 1.5 10.3 6.2 9.8 2.7 5.5 7.4 7.6 8.0 8.5 7.9 6.7 27.1 39.1 7.7 1.6 0.0 0.0 3.5 1.2 9.9 9.1 67.4 55.4
0.0 0.0 0.0 0.0 0.0 0.0 0.0 0.0 0.0 0.0 0.0 0.0 0.0 0.7 0.0 0.0 0.0 1.5 49.3 13.7 1.1 0.0 0.0 3.8 12.3 12.7 6.7 8.5 6.4 8.1 5.7 1.4 1.1 3.9 2.8 10.6 22.6 7.0 2.5 8.4 15.6 12.8 18.1 18.5 27.2 46.4 54.5
0.0 0.0 0.0 0.0 0.0 0.0 0.0 0.0 0.0 0.0 0.0 0.0 0.0 17.6 0.0 0.0 10.7 24.5 19.7 3.8 0.0 0.0 0.0 1.1 2.5 5.4 9.0 8.6 10.0 13.5 7.8 1.8 0.0 0.6 2.7 1.8 14.6 10.4 4.0 0.6 0.6 3.4 16.7 28.0 59.2 56.6 42.6
0.0 0.0 0.0 0.0 0.0 0.0 0.0 0.0 0.0 0.0 0.0 0.0 6.6 4.3 0.0 0.0 30.8 15.1 2.7 1.6 0.9 1.6 0.8 2.2 4.2 4.9 6.5 11.4 15.5 5.9 4.5 0.0 0.0 0.8 5.8 3.4 14.2 14.5 5.8 0.9 0.2 3.8 4.7 9.5 22.3 31.6 50.2
0.0 0.0 0.0 0.0 0.0 0.0 0.0 0.0 0.0 0.0 0.0 0.0 5.2 29.5 3.8 2.7 1.5 3.0 4.8 4.3 4.4 0.0 0.7 0.1 3.4 4.0 5.8 4.4 1.9 6.8 4.4 0.2 0.0 0.0 0.0 0.0 10.7 13.3 15.3 10.5 6.1 12.9 6.6 4.4 11.7 45.3 31.7
0.0 0.0 0.0 0.0 0.0 0.0 0.0 0.0 0.0 0.0 0.0 0.0 12.5 21.1 0.1 20.5 12.2 5.0 4.1 5.8 6.1 5.7 0.5 0.2 3.5 3.4 7.1 12.9 4.7 2.6 1.3 0.4 0.0 0.2 0.0 0.5 16.4 6.2 4.0 4.0 2.4 4.4 6.9 5.0 10.2 11.3 23.5
0.0 0.0 0.0 0.0 0.0 0.0 0.0 0.0 0.0 0.0 0.0 0.0 47.0 8.6 1.8 2.0 0.1 2.9 10.5 14.6 7.1 1.4 5.0 2.1 3.7 1.7 2.9 10.0 4.6 8.2 3.1 0.4 2.7 0.0 0.2 0.1 8.0 7.2 7.0 3.3 1.2 7.0 7.8 4.3 4.1 8.4 11.1
0.0 0.0 0.0 0.0 0.0 0.0 0.0 0.0 0.0 0.0 0.0 0.0 1.4 0.0 3.5 3.0 1.8 5.9 4.7 2.7 3.7 2.7 0.3 0.7 1.7 4.4 4.9 2.1 0.3 0.2 0.5 0.8 2.0 4.1 3.2 3.3 6.3 6.7 10.5 0.9 2.3 11.7 14.0 8.2 5.3 3.8 4.5
0.0 0.0 0.0 0.0 0.0 0.0 0.0 0.0 0.0 0.0 0.0 0.0 0.0 0.6 13.9 16.5 5.2 2.5 0.3 1.0 1.8 1.5 5.6 1.1 0.3 2.0 0.0 0.0 0.0 0.0 0.2 0.1 0.1 0.8 1.0 5.8 5.6 8.1 9.8 5.6 28.5 11.0 1.6 2.0 2.4 2.3 2.6
0.0 0.0 0.0 0.0 0.0 0.0 0.0 0.0 0.0 0.0 0.0 0.0 0.0 0.1 10.1 17.1 1.5 2.0 2.0 2.8 0.2 0.5 2.0 1.3 0.6 0.0 0.0 0.6 3.5 5.8 3.0 1.8 0.7 0.1 0.3 1.0 4.8 15.5 16.8 7.2 4.2 2.4 1.8 2.7 2.7 3.4 1.6
0.0 0.0 0.0 0.0 0.0 0.0 0.0 0.0 0.0 0.0 0.0 0.0 0.0 0.0 5.9 21.2 5.9 0.4 4.7 3.2 5.4 2.9 3.8 1.8 0.0 0.0 0.0 3.1 10.7 14.1 6.7 2.1 1.4 0.5 0.0 0.3 2.0 17.5 19.2 18.2 10.8 2.8 0.5 0.1 0.6 6.8 0.8
0.0 0.0 0.0 0.0 0.0 0.0 0.0 0.0 0.0 0.0 0.0 0.0 0.0 0.0 2.4 24.8 0.2 0.4 2.3 4.2 2.0 2.2 3.5 0.8 0.4 0.1 0.5 8.4 14.2 12.0 7.6 3.3 7.2 4.3 2.8 7.0 11.4 27.7 23.2 30.4 8.7 1.5 0.6 0.2 9.4 9.8 0.8
0.0 0.0 0.0 0.0 0.0 0.0 0.0 0.0 0.0 0.0 0.0 0.0 0.0 0.0 0.0 10.5 0.4 0.0 0.0 0.2 0.3 0.5 5.1 1.9 6.5 4.4 8.7 19.1 16.6 11.5 10.2 7.4 5.1 1.7 5.5 9.8 15.3 14.0 16.9 29.3 25.4 1.2 1.0 4.0 4.6 0.5 0.5
0.0 0.0 0.0 0.0 0.0 0.0 0.0 0.0 0.0 0.0 0.0 0.0 2.1 0.0 0.0 1.5 0.0 0.0 0.0 0.0 0.0 0.0 0.4 2.0 5.5 6.3 9.1 19.6 13.5 5.8 7.1 7.8 4.9 13.5 0.9 9.3 4.9 9.9 9.6 17.7 6.1 3.9 3.7 1.0 0.4 1.2 1.0